Volver al catálogo

COSMOS 2451

ActivoNavegaciónPO
NORAD 35498·PAYLOAD·🇷🇺 Russia

Lanzado Jul 6, 2009 desde Plesetsk Cosmodrome

Loading…

Próximos Pases (próximas 24 horas)

TLE

ActualizadoSource: Space-Track

Época: Sep 14, 2026, 21:52 UTC

1 35498U 09036A   26257.91150559 -.00000026  00000-0 -26335-3 0  9996
2 35498  82.4888  36.6656 0006987  23.5450 336.5947 12.40872040778771

Sigue COSMOS 2451 en tiempo real con AllMySat

Download on the App Store